Date,TemperatureHighF,TemperatureAvgF,TemperatureLowF,DewpointHighF,DewpointAvgF,DewpointLowF,HumidityHigh,HumidityAvg,HumidityLow,PressureMaxIn,PressureMinIn,WindSpeedMaxMPH,WindSpeedAvgMPH,GustSpeedMaxMPH,PrecipitationSumIn
2013-9-1,71.4,65.7,61.2,68.1,64.1,59.8,99,95,80,29.79,29.58,18,8,0,0.24
2013-9-2,63.5,60.9,59.4,62.1,59.0,56.8,99,94,86,29.91,29.78,23,12,0,0.04
2013-9-3,72.5,67.1,61.9,71.3,66.7,61.3,99,99,96,29.77,29.50,24,13,0,1.28
2013-9-4,75.2,68.6,63.7,69.5,66.7,59.9,99,94,76,29.54,29.41,19,10,0,0.22
2013-9-5,62.1,54.9,46.6,58.8,49.5,45.8,99,82,69,29.76,29.55,17,5,0,0.07
2013-9-6,64.9,54.3,43.9,51.0,45.6,40.4,99,74,51,29.85,29.74,20,10,0,0.00
2013-9-7,70.3,61.3,53.2,56.9,53.3,49.7,94,76,53,29.74,29.49,25,14,0,0.02
2013-9-8,62.6,56.9,49.6,61.1,55.3,45.2,99,95,77,29.48,29.26,29,11,0,2.06
2013-9-9,62.6,54.6,47.5,50.4,46.1,41.6,89,74,51,29.81,29.50,24,14,0,0.00
2013-9-10,64.2,59.5,53.6,59.3,55.3,49.4,95,86,80,29.91,29.81,19,10,0,0.00
2013-9-11,71.4,65.3,59.2,68.6,63.9,58.8,99,95,86,29.91,29.60,20,10,0,0.12
2013-9-12,74.3,69.3,64.6,70.1,67.5,64.3,99,94,84,29.67,29.50,19,8,0,0.47
2013-9-13,75.6,68.9,66.4,70.8,67.6,64.0,99,96,82,29.50,29.38,23,11,0,1.04
2013-9-14,76.1,68.7,62.1,70.2,66.9,61.8,99,94,82,29.64,29.37,14,7,0,0.00
2013-9-15,68.4,59.8,53.1,61.8,55.2,51.6,98,85,64,29.76,29.63,21,10,0,0.00
2013-9-16,64.0,55.5,48.6,57.4,52.7,41.9,99,91,76,29.82,29.67,18,9,0,0.21
2013-9-17,61.2,51.6,45.1,49.3,43.1,38.9,94,73,54,29.99,29.82,20,9,0,0.00
2013-9-18,68.2,57.5,49.6,54.0,49.7,47.1,98,77,51,29.94,29.73,20,9,0,0.00
2013-9-19,73.2,59.5,47.5,55.6,52.9,47.2,99,81,51,29.76,29.68,13,5,0,0.00
2013-9-20,59.0,54.1,47.5,56.8,50.9,44.1,99,89,78,29.97,29.70,20,9,0,0.00
2013-9-21,72.0,64.6,47.5,59.5,57.3,44.1,96,78,62,29.95,29.65,23,14,0,0.00
2013-9-22,78.1,67.3,55.8,67.6,62.8,55.5,99,86,66,29.67,29.39,28,14,0,0.07
2013-9-23,67.8,57.8,48.9,66.9,56.6,47.2,99,96,89,29.40,29.32,19,10,0,0.74
2013-9-24,54.9,49.9,47.1,49.7,47.8,46.9,99,93,76,29.50,29.38,14,5,0,0.00
2013-9-25,55.2,51.9,48.6,53.7,51.4,48.3,99,98,90,29.54,29.48,15,8,0,0.33
2013-9-26,54.9,53.3,52.2,54.6,52.9,51.6,99,98,91,29.77,29.54,29,19,0,0.01
2013-9-27,57.0,52.9,42.3,52.4,49.9,42.0,99,90,82,29.99,29.77,29,11,0,0.00
2013-9-28,70.5,55.0,39.6,54.7,48.5,39.3,99,81,50,30.05,29.96,13,5,0,0.00
2013-9-29,74.8,61.4,52.3,59.0,53.6,48.6,94,77,55,29.97,29.86,18,7,0,0.00
2013-9-30,68.9,57.1,46.6,54.9,50.6,46.3,99,82,45,29.89,29.78,11,4,0,0.00